GW2041 Weather Reports


Display with metric or nautical units.
time (UTC)temp
F
wind
direction
speed
MPH
gust
MPH
rain 1hr
in
rain 24hr
in
rain mn
in
humidity
%
barometer
mb
20260509004330 43 68 0.0 0.0 0.00 0.00 0.00 85 1016.8
20260509003329 44 68 0.0 0.0 0.00 0.00 0.00 85 1016.1
20260509002326 44 68 0.0 0.0 0.00 0.00 0.00 85 1016.1
20260509001328 45 68 0.0 0.0 0.00 0.00 0.00 85 1016.1
20260509000811 45 68 0.0 0.0 0.00 0.00 0.00 84 1016.1
20260508235819 44 68 0.0 0.0 0.00 0.00 0.00 84 1016.3
20260508234328 45 68 0.0 0.0 0.00 0.00 0.00 83 1016.3
20260508233330 45 68 0.0 0.0 0.00 0.00 0.00 83 1016.3
20260508232327 45 68 0.0 0.0 0.00 0.00 0.00 82 1016.3
20260508231804 45 68 0.0 0.0 0.00 0.00 0.00 82 1016.7
20260508230327 46 68 0.0 0.0 0.00 0.00 0.00 81 1016.7
20260508225326 46 68 0.0 0.0 0.00 0.00 0.00 81 1016.6
20260508224325 46 68 0.0 0.0 0.00 0.00 0.00 80 1016.6
20260508223328 47 68 0.0 0.0 0.00 0.00 0.00 80 1016.7
20260508222325 47 68 0.0 0.0 0.00 0.00 0.00 79 1016.7
20260508221325 47 68 0.0 0.0 0.00 0.00 0.00 79 1017.1
20260508220329 48 68 0.0 0.0 0.00 0.00 0.00 78 1017.1
20260508215322 48 68 0.0 0.0 0.00 0.00 0.00 78 1017.0
20260508214759 48 45 0.0 0.0 0.00 0.00 0.00 77 1017.0
20260508213327 49 23 0.0 0.0 0.00 0.00 0.00 77 1017.3
20260508212225 49 68 0.0 0.0 0.00 0.00 0.00 76 1017.3
20260508211230 49 338 0.0 0.0 0.00 0.00 0.00 75 1017.3
20260508210226 49 338 0.0 0.0 0.00 0.00 0.00 74 1017.3
20260508205225 50 45 0.0 0.0 0.00 0.00 0.00 74 1017.1
20260508204227 50 338 0.0 0.0 0.00 0.00 0.00 73 1017.1
20260508203707 50 315 0.0 0.0 0.00 0.00 0.00 72 1017.0
20260508202223 51 23 0.0 0.0 0.00 0.00 0.00 71 1017.0
20260508201223 51 45 0.0 2.0 0.00 0.00 0.00 69 1016.8
20260508200709 51 68 0.0 2.0 0.00 0.00 0.00 69 1016.8
20260508195225 52 23 0.0 2.0 0.00 0.00 0.00 67 1016.7
20260508194223 53 68 0.0 0.0 0.00 0.00 0.00 66 1016.7
20260508193226 54 45 0.0 0.0 0.00 0.00 0.00 65 1016.4
20260508192220 54 45 0.0 0.0 0.00 0.00 0.00 63 1016.4
20260508191224 55 23 0.0 0.0 0.00 0.00 0.00 61 1016.4
20260508190230 56 23 0.0 1.0 0.00 0.00 0.00 59 1016.4
20260508185222 57 23 0.0 0.0 0.00 0.00 0.00 58 1016.4
20260508184224 57 23 0.0 0.0 0.00 0.00 0.00 57 1016.4
20260508183226 58 293 1.0 4.0 0.00 0.00 0.00 56 1016.2
20260508182223 59 338 1.0 4.0 0.00 0.00 0.00 55 1016.2
20260508181223 60 45 1.0 4.0 0.00 0.00 0.00 54 1016.1
20260508180224 61 90 1.0 4.0 0.00 0.00 0.00 53 1016.1
20260508175221 62 0 2.0 3.0 0.00 0.00 0.00 52 1016.1
20260508174220 62 23 2.0 4.0 0.00 0.00 0.00 52 1016.1
20260508173224 62 68 1.0 3.0 0.00 0.00 0.00 52 1016.1
20260508172706 62 23 1.0 3.0 0.00 0.00 0.00 51 1016.1
20260508171220 65 338 2.0 4.0 0.00 0.00 0.00 48 1016.0
20260508170223 66 158 2.0 7.0 0.00 0.00 0.00 48 1016.0
20260508165219 67 23 2.0 4.0 0.00 0.00 0.00 49 1016.1
20260508164218 66 0 1.0 3.0 0.00 0.00 0.00 51 1016.1
20260508163223 62 23 1.0 3.0 0.00 0.00 0.00 53 1016.0
20260508162218 62 180 1.0 2.0 0.00 0.00 0.00 52 1016.0
20260508161655 64 338 2.0 4.0 0.00 0.00 0.00 50 1016.0
20260508160655 67 23 4.0 0.0 0.00 0.00 0.00 48 1016.0
20260508155820 68 45 3.0 9.0 0.00 0.00 0.00 48 1015.7
20260508153820 67 23 4.0 8.0 0.00 0.00 0.00 48 1015.7
20260508152817 65 23 3.0 6.0 0.00 0.00 0.00 52 1015.7
20260508152249 63 45 2.0 4.0 0.00 0.00 0.00 52 1015.6
20260508150815 65 338 2.0 7.0 0.00 0.00 0.00 49 1015.6
20260508145815 68 158 2.0 5.0 0.00 0.00 0.00 48 1015.8
20260508144815 67 23 2.0 4.0 0.00 0.00 0.00 50 1015.8
20260508143817 66 315 2.0 5.0 0.00 0.00 0.00 50 1015.6
20260508142817 66 23 2.0 5.0 0.00 0.00 0.00 51 1015.6
20260508141814 68 23 2.0 6.0 0.00 0.00 0.00 48 1015.6
20260508140812 67 315 1.0 3.0 0.00 0.00 0.00 54 1015.6
20260508135813 65 338 2.0 7.0 0.00 0.00 0.00 53 1015.6
20260508134818 65 23 3.0 9.0 0.00 0.00 0.00 55 1015.6
20260508133813 63 135 3.0 9.0 0.00 0.00 0.00 55 1015.5
20260508132813 63 68 2.0 5.0 0.00 0.00 0.00 56 1015.5
20260508131813 62 0 3.0 11.0 0.00 0.00 0.00 55 1015.6
20260508130813 64 68 4.0 11.0 0.00 0.00 0.00 55 1015.6
20260508125814 63 158 3.0 4.0 0.00 0.00 0.00 56 1015.6
20260508124811 63 338 3.0 3.0 0.00 0.00 0.00 55 1015.6
20260508123812 63 23 3.0 6.0 0.00 0.00 0.00 55 1015.7
20260508122811 66 315 2.0 6.0 0.00 0.00 0.00 55 1015.7
20260508121810 64 23 3.0 8.0 0.00 0.00 0.00 56 1015.4
20260508120811 65 68 3.0 5.0 0.00 0.00 0.00 55 1015.4
20260508115806 64 23 4.0 6.0 0.00 0.00 0.00 56 1015.5
20260508114805 65 23 4.0 9.0 0.00 0.00 0.00 55 1015.5
20260508113810 64 315 2.0 3.0 0.00 0.00 0.00 57 1015.4
20260508112804 62 225 3.0 7.0 0.00 0.00 0.00 57 1015.4
20260508111806 63 23 2.0 5.0 0.00 0.00 0.00 58 1015.5
20260508110810 63 315 2.0 3.0 0.00 0.00 0.00 59 1015.5
20260508105804 62 338 3.0 7.0 0.00 0.00 0.00 59 1015.6
20260508105237 61 68 3.0 5.0 0.00 0.00 0.00 61 1015.6
20260508103806 61 23 2.0 6.0 0.00 0.00 0.00 61 1015.3
20260508102802 62 338 2.0 5.0 0.00 0.00 0.00 60 1015.3
20260508101801 62 23 2.0 4.0 0.00 0.00 0.00 61 1015.2
20260508100805 65 23 3.0 0.0 0.00 0.00 0.00 57 1015.2
20260508100315 62 45 2.0 4.0 0.00 0.00 0.00 58 1015.2
20260508095317 63 315 3.0 7.0 0.00 0.00 0.00 58 1015.3
20260508094316 65 23 3.0 6.0 0.00 0.00 0.00 57 1015.3
20260508093314 65 338 3.0 11.0 0.00 0.00 0.00 59 1015.5
20260508092315 63 45 2.0 5.0 0.00 0.00 0.00 62 1015.5
20260508091750 62 248 3.0 7.0 0.00 0.00 0.00 63 1015.5
20260508090305 61 135 4.0 11.0 0.00 0.00 0.00 62 1015.5
20260508085306 62 23 2.0 6.0 0.00 0.00 0.00 62 1015.6
20260508084304 63 45 2.0 4.0 0.00 0.00 0.00 64 1015.6
20260508083302 63 23 2.0 4.0 0.00 0.00 0.00 64 1015.6
20260508082744 62 180 3.0 5.0 0.00 0.00 0.00 67 1015.6
20260508081302 62 45 3.0 4.0 0.00 0.00 0.00 73 1015.3
20260508080301 60 23 2.0 4.0 0.00 0.00 0.00 77 1015.3
20260508075307 58 23 2.0 4.0 0.00 0.00 0.00 81 1015.2
20260508074738 55 23 2.0 9.0 0.00 0.00 0.00 88 1015.2
20260508073734 52 23 2.0 9.0 0.00 0.00 0.00 90 1015.3
20260508072737 51 68 1.0 6.0 0.00 0.00 0.00 91 1015.3
20260508071258 50 338 1.0 2.0 0.00 0.00 0.00 92 1015.5
20260508070258 49 45 1.0 3.0 0.00 0.00 0.00 93 1015.5
20260508065258 48 338 0.0 2.0 0.00 0.00 0.00 93 1015.1
20260508064749 47 0 0.0 3.0 0.00 0.00 0.00 94 1015.1
20260508063259 46 23 0.0 2.0 0.00 0.00 0.00 94 1014.8
20260508062247 45 135 0.0 1.0 0.00 0.00 0.00 94 1014.8
20260508061246 44 45 0.0 2.0 0.00 0.00 0.00 93 1014.7
20260508060242 44 23 0.0 3.0 0.00 0.00 0.00 93 1014.7
20260508055716 42 135 0.0 1.0 0.00 0.00 0.00 93 1014.4
20260508054243 41 68 0.0 1.0 0.00 0.00 0.00 93 1014.4
20260508053241 41 23 0.0 2.0 0.00 0.00 0.00 93 1014.4
20260508052245 40 338 0.0 2.0 0.00 0.00 0.00 93 1014.4
20260508051246 39 45 0.0 2.0 0.00 0.00 0.00 92 1014.3
20260508050243 40 68 0.0 0.0 0.00 0.00 0.00 92 1014.3
20260508045241 39 68 0.0 0.0 0.00 0.00 0.00 92 1014.1
20260508044710 39 68 0.0 0.0 0.00 0.00 0.00 92 1014.1
20260508043718 39 68 0.0 0.0 0.00 0.00 0.00 92 1014.3
20260508042708 39 68 0.0 0.0 0.00 0.00 0.00 92 1014.3
20260508041236 39 68 0.0 0.0 0.00 0.00 0.00 91 1014.2
20260508040229 39 68 0.0 0.0 0.00 0.00 0.00 91 1014.2
20260508035224 39 68 0.0 0.0 0.00 0.00 0.00 91 1014.1
20260508034656 39 68 0.0 0.0 0.00 0.00 0.00 91 1014.1
20260508033801 39 68 0.0 0.0 0.00 0.00 0.00 91 1014.3
20260508032328 39 68 0.0 0.0 0.00 0.00 0.00 91 1014.3
20260508031328 39 68 0.0 0.0 0.00 0.00 0.00 91 1014.1
20260508030330 39 68 0.0 0.0 0.00 0.00 0.00 91 1014.1
20260508025328 39 68 0.0 0.0 0.00 0.00 0.00 91 1014.3
20260508024329 39 68 0.0 0.0 0.00 0.00 0.00 90 1014.3
20260508023333 39 68 0.0 0.0 0.00 0.00 0.00 90 1014.5
20260508022327 39 68 0.0 0.0 0.00 0.00 0.00 90 1014.5
20260508021324 39 68 0.0 0.0 0.00 0.00 0.00 90 1014.5
20260508020317 40 68 0.0 0.0 0.00 0.00 0.00 90 1014.5
20260508015748 40 68 0.0 0.0 0.00 0.00 0.00 90 1014.5
20260508014316 39 68 0.0 0.0 0.00 0.00 0.00 90 1014.5
20260508013311 40 68 0.0 0.0 0.00 0.00 0.00 89 1014.8
20260508012312 40 68 0.0 0.0 0.00 0.00 0.00 89 1014.8
20260508011313 40 68 0.0 0.0 0.00 0.00 0.00 89 1014.8
20260508010313 40 68 0.0 0.0 0.00 0.00 0.00 89 1014.8
20260508005310 41 68 0.0 0.0 0.00 0.00 0.00 89 1015.0